�������l�o���
Date,Time,MP-1(��Sv/h),MP-2(��Sv/h),MP-3(��Sv/h),MP-4(��Sv/h),MP-5(��Sv/h),MP-6(��Sv/h),MP-7(��Sv/h),����,����(m/s),���J
2019/02/22,00:00,0.214,0.194,0.313,0.293,0.277,0.157,0.095,�k��,5.3,��
2019/02/22,00:10,0.214,0.193,0.314,0.293,0.276,0.158,0.096,�k��,5.5,��
2019/02/22,00:20,0.214,0.194,0.314,0.291,0.276,0.158,0.096,�k��,5.3,��
2019/02/22,00:30,0.214,0.194,0.314,0.292,0.275,0.158,0.095,�k��,5.5,��
2019/02/22,00:40,0.214,0.193,0.314,0.292,0.276,0.158,0.096,���k��,5.7,��
2019/02/22,00:50,0.215,0.195,0.313,0.292,0.276,0.157,0.094,�k��,5.1,��
2019/02/22,01:00,0.214,0.194,0.315,0.292,0.275,0.158,0.095,���k��,4.7,��
2019/02/22,01:10,0.216,0.194,0.314,0.293,0.275,0.157,0.095,�k��,4.7,��
2019/02/22,01:20,0.214,0.193,0.315,0.294,0.274,0.159,0.094,���k��,5.7,��
2019/02/22,01:30,0.214,0.192,0.314,0.292,0.276,0.159,0.094,���k��,6.3,��
2019/02/22,01:40,0.214,0.194,0.313,0.292,0.276,0.157,0.095,���k��,5.8,��
2019/02/22,01:50,0.214,0.193,0.313,0.294,0.276,0.158,0.095,���k��,5.4,��
2019/02/22,02:00,0.215,0.193,0.313,0.292,0.275,0.157,0.095,���k��,5.7,��
2019/02/22,02:10,0.213,0.193,0.315,0.292,0.275,0.158,0.095,���k��,6.5,��
2019/02/22,02:20,0.215,0.193,0.313,0.292,0.276,0.157,0.095,���k��,6.1,��
2019/02/22,02:30,0.213,0.194,0.314,0.290,0.275,0.158,0.094,���k��,4.9,��
2019/02/22,02:40,0.213,0.194,0.314,0.292,0.275,0.157,0.095,���k��,4.1,��
2019/02/22,02:50,0.215,0.192,0.313,0.293,0.275,0.157,0.095,���k��,3.2,��
2019/02/22,03:00,0.215,0.194,0.312,0.292,0.276,0.157,0.095,�k��,2.2,��
2019/02/22,03:10,0.214,0.194,0.314,0.291,0.277,0.158,0.095,�k��,3.2,��
2019/02/22,03:20,0.215,0.193,0.314,0.291,0.275,0.157,0.094,�k��,2.8,��
2019/02/22,03:30,0.214,0.194,0.313,0.292,0.275,0.157,0.095,�k�k��,2.7,��
2019/02/22,03:40,0.215,0.193,0.314,0.292,0.275,0.157,0.095,�k��,2.8,��
2019/02/22,03:50,0.215,0.194,0.314,0.291,0.275,0.157,0.094,�k��,2.7,��
2019/02/22,04:00,0.214,0.193,0.314,0.291,0.277,0.157,0.095,�k��,2.1,��
2019/02/22,04:10,0.214,0.194,0.314,0.292,0.276,0.157,0.094,�k�k��,2.6,��
2019/02/22,04:20,0.214,0.194,0.313,0.292,0.276,0.158,0.095,�k�k��,2.6,��
2019/02/22,04:30,0.215,0.194,0.314,0.293,0.275,0.157,0.096,�k�k��,3.0,��
2019/02/22,04:40,0.214,0.193,0.313,0.292,0.276,0.157,0.095,�k�k��,2.7,��
2019/02/22,04:50,0.215,0.193,0.314,0.292,0.276,0.157,0.095,�k�k��,2.6,��
2019/02/22,05:00,0.214,0.192,0.315,0.292,0.275,0.157,0.095,�k�k��,2.1,��
2019/02/22,05:10,0.215,0.194,0.313,0.292,0.275,0.157,0.095,�k�k��,2.1,��
2019/02/22,05:20,0.214,0.194,0.312,0.291,0.275,0.157,0.095,�k�k��,1.9,��
2019/02/22,05:30,0.215,0.193,0.314,0.293,0.275,0.157,0.096,�k�k��,2.2,��
2019/02/22,05:40,0.214,0.193,0.315,0.292,0.276,0.157,0.095,�k�k��,2.3,��
2019/02/22,05:50,0.214,0.193,0.315,0.293,0.274,0.157,0.095,�k��,2.1,��
2019/02/22,06:00,0.215,0.193,0.315,0.292,0.275,0.158,0.095,�k�k��,2.2,��
2019/02/22,06:10,0.214,0.193,0.313,0.291,0.275,0.157,0.095,�k�k��,2.1,��
2019/02/22,06:20,0.214,0.193,0.313,0.291,0.276,0.158,0.096,�k��,2.1,��
2019/02/22,06:30,0.213,0.194,0.313,0.292,0.274,0.158,0.095,�k,2.4,��
2019/02/22,06:40,0.215,0.193,0.314,0.293,0.275,0.157,0.095,�k�k��,1.5,��
2019/02/22,06:50,0.214,0.193,0.314,0.292,0.275,0.157,0.095,���k��,1.1,��
2019/02/22,07:00,0.214,0.193,0.314,0.292,0.275,0.158,0.094,���k��,1.8,��
2019/02/22,07:10,0.214,0.194,0.315,0.292,0.276,0.157,0.095,��,1.2,��
2019/02/22,07:20,0.213,0.194,0.313,0.292,0.275,0.157,0.095,��쐼,1.5,��
2019/02/22,07:30,0.214,0.194,0.314,0.291,0.274,0.157,0.095,��,2.0,��
2019/02/22,07:40,0.214,0.193,0.313,0.292,0.275,0.157,0.095,��쓌,1.1,��
2019/02/22,07:50,0.213,0.193,0.314,0.292,0.275,0.158,0.095,��쓌,1.8,��
2019/02/22,08:00,0.213,0.193,0.314,0.291,0.275,0.157,0.095,��쓌,1.3,��
2019/02/22,08:10,0.214,0.194,0.314,0.291,0.275,0.158,0.095,���쓌,0.6,��
2019/02/22,08:20,0.214,0.195,0.314,0.291,0.275,0.157,0.095,���k��,0.7,��
2019/02/22,08:30,0.214,0.193,0.313,0.291,0.275,0.157,0.095,-,CALM,��
2019/02/22,08:40,0.214,0.194,0.312,0.291,0.275,0.157,0.094,-,CALM,��
2019/02/22,08:50,0.213,0.193,0.313,0.290,0.277,0.156,0.095,���k��,1.0,��
2019/02/22,09:00,0.213,0.193,0.315,0.291,0.277,0.158,0.094,�k�k��,1.6,��
2019/02/22,09:10,0.215,0.193,0.312,0.291,0.273,0.158,0.095,�k��,1.9,��
2019/02/22,09:20,0.214,0.192,0.314,0.290,0.276,0.157,0.095,�k��,2.4,��
2019/02/22,09:30,0.213,0.192,0.314,0.292,0.275,0.157,0.094,�k��,2.3,��
2019/02/22,09:40,0.213,0.193,0.313,0.289,0.275,0.157,0.095,�k��,2.3,��
2019/02/22,09:50,0.211,0.192,0.311,0.292,0.276,0.157,0.094,���k��,2.1,��
2019/02/22,10:00,0.213,0.193,0.314,0.288,0.274,0.156,0.094,���k��,2.9,��
2019/02/22,10:10,0.212,0.192,0.312,0.291,0.276,0.156,0.094,���k��,2.9,��
2019/02/22,10:20,0.212,0.192,0.312,0.289,0.275,0.155,0.095,���k��,2.9,��
2019/02/22,10:30,0.213,0.193,0.314,0.291,0.275,0.156,0.095,��,3.2,��
2019/02/22,10:40,0.212,0.193,0.314,0.291,0.277,0.156,0.094,��,2.5,��
2019/02/22,10:50,0.212,0.193,0.312,0.293,0.275,0.157,0.094,��,2.5,��
2019/02/22,11:00,0.212,0.193,0.314,0.290,0.277,0.156,0.094,���쓌,3.0,��
2019/02/22,11:10,0.211,0.191,0.313,0.293,0.274,0.158,0.094,��,3.4,��
2019/02/22,11:20,0.212,0.193,0.312,0.290,0.277,0.157,0.095,��,4.5,��
2019/02/22,11:30,0.212,0.193,0.314,0.292,0.274,0.157,0.094,��,4.2,��
2019/02/22,11:40,0.213,0.193,0.310,0.291,0.277,0.158,0.094,���쓌,3.4,��
2019/02/22,11:50,0.212,0.193,0.312,0.292,0.275,0.157,0.095,���쓌,4.4,��
2019/02/22,12:00,0.212,0.192,0.312,0.292,0.276,0.158,0.095,��,3.2,��
2019/02/22,12:10,0.211,0.195,0.313,0.293,0.275,0.159,0.095,���쓌,3.8,��
2019/02/22,12:20,0.214,0.192,0.311,0.292,0.277,0.158,0.094,���쓌,4.0,��
2019/02/22,12:30,0.212,0.193,0.313,0.293,0.275,0.157,0.095,���쓌,4.7,��
2019/02/22,12:40,0.213,0.193,0.311,0.291,0.278,0.156,0.094,��,3.8,��
2019/02/22,12:50,0.213,0.193,0.314,0.293,0.275,0.158,0.094,���쓌,3.6,��
2019/02/22,13:00,0.213,0.194,0.311,0.292,0.277,0.157,0.094,���쓌,4.2,��
2019/02/22,13:10,0.212,0.192,0.314,0.293,0.276,0.156,0.095,�쓌,3.7,��
2019/02/22,13:20,0.213,0.194,0.310,0.292,0.278,0.158,0.095,�쓌,3.6,��
2019/02/22,13:30,0.212,0.193,0.312,0.291,0.275,0.159,0.094,�쓌,3.5,��
2019/02/22,13:40,0.214,0.194,0.312,0.291,0.278,0.157,0.095,���쓌,3.2,��
2019/02/22,13:50,0.212,0.194,0.313,0.294,0.275,0.157,0.095,���쓌,2.6,��
2019/02/22,14:00,0.213,0.193,0.310,0.291,0.276,0.158,0.094,���쓌,3.6,��
2019/02/22,14:10,0.212,0.194,0.313,0.292,0.275,0.158,0.095,��,3.0,��
2019/02/22,14:20,0.213,0.193,0.311,0.292,0.277,0.158,0.095,���쓌,2.7,��
2019/02/22,14:30,0.213,0.193,0.314,0.292,0.274,0.157,0.094,���쓌,2.5,��
2019/02/22,14:40,0.214,0.194,0.311,0.291,0.278,0.158,0.095,��,2.3,��
2019/02/22,14:50,0.213,0.193,0.314,0.292,0.276,0.158,0.095,���쓌,1.6,��
2019/02/22,15:00,0.214,0.194,0.313,0.294,0.277,0.158,0.095,���쓌,2.6,��
2019/02/22,15:10,0.214,0.194,0.315,0.294,0.277,0.158,0.095,��,2.6,��
2019/02/22,15:20,0.213,0.194,0.313,0.293,0.278,0.157,0.095,��,1.8,��
2019/02/22,15:30,0.214,0.194,0.314,0.295,0.276,0.157,0.094,��,2.5,��
2019/02/22,15:40,0.213,0.194,0.314,0.293,0.277,0.157,0.095,���k��,2.5,��
2019/02/22,15:50,0.214,0.194,0.313,0.293,0.277,0.157,0.095,�k��,2.1,��
2019/02/22,16:00,0.213,0.195,0.312,0.294,0.277,0.157,0.095,���k��,2.2,��
2019/02/22,16:10,0.213,0.193,0.315,0.292,0.277,0.158,0.095,�k��,2.3,��
2019/02/22,16:20,0.215,0.195,0.312,0.294,0.276,0.158,0.096,�k��,2.1,��
2019/02/22,16:30,0.214,0.194,0.314,0.293,0.278,0.157,0.095,���k��,1.8,��
2019/02/22,16:40,0.214,0.193,0.314,0.292,0.278,0.158,0.094,���k��,2.0,��
2019/02/22,16:50,0.215,0.196,0.313,0.293,0.276,0.158,0.095,���k��,1.7,��
2019/02/22,17:00,0.214,0.194,0.313,0.293,0.277,0.159,0.095,�k��,1.2,��
2019/02/22,17:10,0.214,0.193,0.315,0.292,0.277,0.158,0.094,�k��,1.3,��
2019/02/22,17:20,0.214,0.195,0.313,0.293,0.275,0.159,0.096,�k��,1.3,��
2019/02/22,17:30,0.215,0.193,0.313,0.293,0.276,0.158,0.094,�k�k��,1.2,��
2019/02/22,17:40,0.214,0.194,0.315,0.293,0.278,0.158,0.095,�k,1.2,��
2019/02/22,17:50,0.215,0.194,0.314,0.294,0.276,0.158,0.095,�k�k��,1.6,��
2019/02/22,18:00,0.214,0.194,0.315,0.294,0.277,0.158,0.095,�k,2.0,��
2019/02/22,18:10,0.214,0.194,0.314,0.293,0.277,0.158,0.094,�k,2.9,��
2019/02/22,18:20,0.215,0.193,0.314,0.293,0.276,0.158,0.095,�k,2.7,��
2019/02/22,18:30,0.215,0.194,0.315,0.294,0.277,0.158,0.095,�k,2.4,��
2019/02/22,18:40,0.215,0.195,0.313,0.294,0.277,0.159,0.095,�k,1.7,��
2019/02/22,18:50,0.215,0.194,0.314,0.293,0.277,0.157,0.095,�k,2.1,��
2019/02/22,19:00,0.214,0.194,0.314,0.292,0.275,0.158,0.095,�k�k��,2.3,��
2019/02/22,19:10,0.215,0.195,0.313,0.294,0.277,0.157,0.095,�k�k��,3.0,��
2019/02/22,19:20,0.215,0.194,0.315,0.294,0.276,0.159,0.096,�k�k��,3.0,��
2019/02/22,19:30,0.214,0.195,0.313,0.294,0.274,0.158,0.095,�k�k��,4.2,��
2019/02/22,19:40,0.215,0.194,0.315,0.293,0.275,0.158,0.095,�k�k��,3.5,��
2019/02/22,19:50,0.216,0.194,0.314,0.293,0.276,0.157,0.095,�k�k��,3.8,��
2019/02/22,20:00,0.215,0.195,0.314,0.294,0.276,0.158,0.096,�k�k��,4.2,��
2019/02/22,20:10,0.214,0.194,0.316,0.294,0.276,0.157,0.095,�k�k��,4.6,��
2019/02/22,20:20,0.214,0.194,0.314,0.294,0.275,0.159,0.095,�k�k��,4.6,��
2019/02/22,20:30,0.215,0.194,0.313,0.294,0.276,0.158,0.095,�k�k��,4.8,��
2019/02/22,20:40,0.215,0.195,0.313,0.295,0.276,0.157,0.096,�k�k��,5.0,��
2019/02/22,20:50,0.215,0.194,0.315,0.294,0.275,0.158,0.095,�k��,5.0,��
2019/02/22,21:00,0.215,0.194,0.316,0.294,0.277,0.158,0.095,�k�k��,4.8,��
2019/02/22,21:10,0.215,0.194,0.314,0.294,0.276,0.158,0.096,�k�k��,5.2,��
2019/02/22,21:20,0.215,0.194,0.313,0.294,0.275,0.158,0.096,�k�k��,4.8,��
2019/02/22,21:30,0.215,0.194,0.315,0.293,0.276,0.158,0.094,�k�k��,4.9,��
2019/02/22,21:40,0.215,0.194,0.315,0.294,0.276,0.158,0.095,�k��,5.0,��
2019/02/22,21:50,0.216,0.195,0.314,0.292,0.276,0.158,0.095,�k��,4.5,��
2019/02/22,22:00,0.215,0.195,0.314,0.292,0.277,0.158,0.096,�k�k��,5.2,��
2019/02/22,22:10,0.214,0.194,0.315,0.295,0.275,0.159,0.096,�k�k��,5.4,��
2019/02/22,22:20,0.215,0.194,0.316,0.293,0.275,0.158,0.095,�k�k��,5.3,��
2019/02/22,22:30,0.215,0.193,0.314,0.294,0.277,0.157,0.096,�k�k��,5.3,��
2019/02/22,22:40,0.215,0.194,0.314,0.295,0.278,0.159,0.096,�k��,4.9,��
2019/02/22,22:50,0.215,0.195,0.313,0.293,0.276,0.158,0.095,�k��,4.9,��
2019/02/22,23:00,0.215,0.194,0.314,0.294,0.277,0.158,0.095,�k�k��,4.7,��
2019/02/22,23:10,0.214,0.194,0.315,0.294,0.277,0.158,0.095,�k��,5.1,��
2019/02/22,23:20,0.216,0.194,0.315,0.294,0.276,0.159,0.095,�k�k��,4.7,��
2019/02/22,23:30,0.216,0.194,0.313,0.293,0.275,0.157,0.096,�k�k��,4.9,��
2019/02/22,23:40,0.215,0.194,0.315,0.293,0.278,0.158,0.095,�k�k��,4.9,��
2019/02/22,23:50,0.214,0.194,0.315,0.295,0.277,0.158,0.095,�k�k��,5.3,��
